[[{"header":{"parameterUnit":"m.s-1","parameterCategory":1,"la1":30.2991,"la2":30.254,"lo1":-89.0895,"lo2":-89.0444,"dy":0.0017,"dx":0.0017,"nx":28,"ny":28,"refTime":"2025-04-01T21:00:00:Z","depth":0,"parameterNumber":2,"parameterNumberName":"U-component_of_WINDS"},"data":[0,0,0,0,0,0,0,0,0,0,0,0,0,0,0,0,0,0,0,0,0,0,0,0,0,0,0,0,0,0,0,0,0,0,0,0,0,0,0,0,0,0,0,0,0,0,0,0,0,0,0,0,0,0,0,0,0,0,-3.3888,-3.3889,0,-3.3995,-3.3996,-3.3997,-3.4029,-3.4028,-3.4028,-3.4027,-3.4137,-3.414,-3.4144,0,0,0,0,0,0,0,0,0,0,0,0,0,-3.3714,-3.3717,-3.3888,-3.3889,-3.3891,-3.3994,-3.3996,-3.3997,-3.4029,-3.4028,-3.4028,-3.4027,-3.4136,-3.414,-3.4144,0,0,0,0,0,0,0,0,0,0,0,0,0,-3.3802,-3.3718,-3.3888,-3.3919,-3.3923,-3.3994,-3.3996,-3.3998,-3.4029,-3.4028,-3.4028,-3.4027,-3.4135,-3.414,-3.4145,-3.4193,0,0,-3.416,-3.4163,0,0,0,0,0,0,0,0,-3.3797,-3.3808,-3.3913,-3.3917,-3.3922,-3.3998,-3.3975,-3.4063,-3.4029,-3.3989,-3.4027,-3.4026,-3.4091,-3.41,-3.4122,-3.4198,-3.4202,-3.4161,-3.4164,-3.4166,-3.4168,0,0,0,0,0,0,0,-3.3791,-3.3804,-3.393,-3.3915,-3.392,-3.3928,-3.394,-3.3992,-3.4043,-3.3992,-3.3995,-3.4007,-3.4094,-3.4117,-3.4125,-3.4204,-3.4161,-3.4165,-3.4168,-3.417,-3.4325,-3.4326,0,0,0,0,0,0,-3.3779,-3.3799,-3.3927,-3.3933,-3.3856,-3.3932,-3.3945,-3.3974,-3.4043,-3.4053,-3.4008,-3.4008,-3.4108,-3.4119,-3.4129,-3.4189,-3.4166,-3.4171,-3.4174,-3.4324,-3.4325,-3.4326,0,0,0,0,0,0,-3.3776,-3.379,-3.3923,-3.3867,-3.3884,-3.3936,-3.3968,-3.3977,-3.4,-3.4054,-3.4064,-3.4022,-3.4108,-3.4121,-3.4176,-3.4193,-3.4173,-3.4178,-3.4323,-3.4324,-3.4326,-3.4309,0,0,0,0,0,0,-3.377,-3.3789,-3.3807,-3.3867,-3.3887,-3.3968,-3.3969,-3.3979,-3.4008,-3.401,-3.407,-3.4079,-3.4109,-3.4169,-3.4181,-3.42,-3.4182,-3.4321,-3.4323,-3.4325,-3.4309,-3.431,-3.4311,0,0,0,0,0,-3.3764,-3.3799,-3.3808,-3.3823,-3.3911,-3.3969,-3.3981,-3.4013,-3.401,-3.4029,-3.4064,-3.4077,-3.4189,-3.4174,-3.4189,-3.4209,-3.432,-3.4323,-3.4325,-3.4308,-3.431,-3.4311,0,0,0,0,0,0,-3.374,-3.3807,-3.3818,-3.3873,-3.3915,-3.3974,-3.3999,-3.4014,-3.4058,-3.4058,-3.4097,-3.411,-3.4162,-3.4192,-3.4173,-3.4259,-3.4255,-3.4261,-3.4237,-3.424,-3.4241,-3.4232,-3.4186,0,0,0,0,0,-3.3741,-3.3782,-3.3839,-3.3882,-3.3902,-3.3947,-3.3973,-3.3995,-3.404,-3.4058,-3.4097,-3.4141,-3.4186,-3.4215,-3.4259,-3.4314,-3.4327,-3.4335,-3.4336,-3.4337,-3.4341,-3.4372,-3.4375,-3.4334,-3.4334,-3.4334,0,0,-3.3743,-3.3785,-3.3808,-3.3878,-3.3913,-3.3954,-3.3962,-3.4006,-3.4037,-3.4065,-3.4119,-3.4149,-3.4201,-3.4255,-3.4282,-3.4281,-3.4356,-3.434,-3.434,-3.4344,-3.4374,-3.4378,-3.4382,-3.4335,-3.4335,-3.4335,0,0,-3.3768,-3.3805,-3.3844,-3.3879,-3.3932,-3.3962,-3.3971,-3.4029,-3.405,-3.4104,-3.4126,-3.4165,-3.4242,-3.4277,-3.4305,-3.4345,-3.4359,-3.4359,-3.4366,-3.4395,-3.4398,-3.4401,-3.4415,-3.4419,-3.4363,-3.4363,-3.4363,0,-3.3765,-3.3828,-3.3862,-3.3905,-3.3935,-3.3962,-3.4003,-3.4035,-3.41,-3.412,-3.4119,-3.4216,-3.4253,-3.4316,-3.4326,-3.4348,-3.436,-3.4351,-3.4395,-3.4398,-3.4402,-3.4415,-3.442,-3.4362,-3.4362,-3.4362,-3.4362,0,-3.382,-3.3864,-3.389,-3.3951,-3.3984,-3.4025,-3.4066,-3.4096,-3.4115,-3.4145,-3.4201,-3.4246,-3.43,-3.4317,-3.4336,-3.4383,-3.4381,-3.4387,-3.4384,-3.4405,-3.4418,-3.4423,-3.4361,-3.4362,-3.4362,-3.4362,0,0,-3.3832,-3.3912,-3.3921,-3.3949,-3.401,-3.4044,-3.4087,-3.414,-3.4164,-3.4208,-3.4245,-3.431,-3.4316,-3.4348,-3.4372,-3.4398,-3.4426,-3.4401,-3.4403,-3.4403,-3.448,-3.4473,-3.4479,-3.4436,-3.4437,-3.4438,-3.4475,0,-3.3864,-3.394,-3.3973,-3.4035,-3.4076,-3.4103,-3.4141,-3.4182,-3.4212,-3.4251,-3.4284,-3.4329,-3.4334,-3.4353,-3.4381,-3.4416,-3.4441,-3.4415,-3.447,-3.4472,-3.4455,-3.4486,-3.4479,-3.4512,-3.448,-3.4481,-3.4482,0,-3.3911,-3.3955,-3.402,-3.4076,-3.4095,-3.4127,-3.4178,-3.4216,-3.4264,-3.4284,-3.432,-3.4342,-3.4389,-3.4384,-3.4449,-3.443,-3.4455,-3.4476,-3.4479,-3.4484,-3.4477,-3.449,-3.4523,-3.4527,-3.449,-3.449,-3.4489,0,-3.3911,-3.3987,-3.4036,-3.4059,-3.4126,-3.4148,-3.4177,-3.4225,-3.4254,-3.4299,-3.4319,-3.4369,-3.4396,-3.4434,-3.447,-3.4464,-3.4532,-3.453,-3.4549,-3.4548,-3.4561,-3.4559,-3.4596,-3.4579,-3.4579,-3.4579,-3.4579,0,-3.3943,-3.3981,-3.4037,-3.4067,-3.4111,-3.4149,-3.4192,-3.4224,-3.4266,-3.4302,-3.433,-3.4364,-3.441,-3.445,-3.4479,-3.4528,-3.454,-3.4558,-3.4564,-3.4554,-3.4552,-3.457,-3.4568,-3.458,-3.458,-3.458,-3.458,0,-3.395,-3.3988,-3.4043,-3.4102,-3.4118,-3.4148,-3.4198,-3.4229,-3.426,-3.4307,-3.432,-3.4369,-3.4418,-3.4458,-3.4522,-3.4541,-3.4592,-3.4601,-3.4575,-3.4579,-3.4595,-3.4593,-3.4644,-3.4653,-3.4631,-3.4631,-3.4631,0,-3.3966,-3.3997,-3.4058,-3.4085,-3.4113,-3.4156,-3.4186,-3.4225,-3.4255,-3.4313,-3.4336,-3.4387,-3.4429,-3.4506,-3.4548,-3.4598,-3.4607,-3.4622,-3.4614,-3.4603,-3.4606,-3.4603,-3.4606,-3.4622,-3.4622,-3.4622,-3.4622,0,-3.3991,-3.4009,-3.4051,-3.41,-3.4135,-3.4176,-3.4217,-3.4237,-3.4284,-3.4317,-3.4367,-3.44,-3.4466,-3.4515,-3.4569,-3.46,-3.4619,-3.4624,-3.4631,-3.462,-3.4603,-3.4612,-3.4576,-3.4622,-3.4622,-3.4622,-3.4622,-3.4622,-3.4003,-3.4031,-3.4079,-3.4125,-3.416,-3.4198,-3.4229,-3.4265,-3.4307,-3.4362,-3.4384,-3.4435,-3.4483,-3.4557,-3.4588,-3.4629,-3.4631,-3.4641,-3.4644,-3.4645,-3.4643,-3.4598,-3.464,-3.464,-3.464,-3.464,-3.464,0,-3.4029,-3.4061,-3.4103,-3.4159,-3.4196,-3.421,-3.4257,-3.4286,-3.4331,-3.4374,-3.4415,-3.4473,-3.4522,-3.4568,-3.4619,-3.4643,-3.4653,-3.4655,-3.4653,-3.466,-3.4639,-3.4628,-3.4646,-3.4646,-3.4646,-3.4646,-3.4646,-3.4646,-3.4046,-3.4094,-3.4117,-3.4183,-3.4216,-3.4265,-3.4291,-3.4326,-3.4361,-3.4424,-3.4464,-3.4494,-3.4539,-3.4593,-3.4639,-3.4652,-3.4669,-3.4668,-3.4683,-3.4662,-3.4661,-3.466,-3.4649,-3.4672,-3.4672,-3.47,-3.47,-3.47]},{"header":{"parameterUnit":"m.s-1","parameterCategory":1,"la1":30.2991,"la2":30.254,"lo1":-89.0895,"lo2":-89.0444,"dy":0.0017,"dx":0.0017,"nx":28,"ny":28,"refTime":"2025-04-01T21:00:00:Z","depth":0,"parameterNumber":3,"parameterNumberName":"V-component_of_WINDS"},"data":[0,0,0,0,0,0,0,0,0,0,0,0,0,0,0,0,0,0,0,0,0,0,0,0,0,0,0,0,0,0,0,0,0,0,0,0,0,0,0,0,0,0,0,0,0,0,0,0,0,0,0,0,0,0,0,0,0,0,4.6826,4.6826,0,4.6841,4.6841,4.6841,4.6792,4.679,4.6789,4.6787,4.6802,4.6804,4.6806,0,0,0,0,0,0,0,0,0,0,0,0,0,4.6753,4.6755,4.6826,4.6826,4.6826,4.6841,4.6841,4.6841,4.6792,4.679,4.6788,4.6787,4.6802,4.6804,4.6806,0,0,0,0,0,0,0,0,0,0,0,0,0,4.6778,4.6755,4.6826,4.6803,4.6801,4.6841,4.6841,4.6842,4.6792,4.679,4.6788,4.6786,4.6801,4.6803,4.6806,4.6868,0,0,4.6814,4.6816,0,0,0,0,0,0,0,0,4.6777,4.6781,4.6806,4.6805,4.6803,4.6812,4.6821,4.685,4.6793,4.6796,4.6787,4.6785,4.6807,4.6809,4.6817,4.6869,4.6869,4.6815,4.6816,4.6817,4.6818,0,0,0,0,0,0,0,4.6775,4.678,4.6832,4.6807,4.6805,4.6792,4.6793,4.6826,4.6814,4.6795,4.6792,4.6794,4.6806,4.6815,4.6817,4.6869,4.6815,4.6817,4.6819,4.682,4.6974,4.6977,0,0,0,0,0,0,4.6776,4.6779,4.6831,4.6832,4.6784,4.6795,4.6797,4.6811,4.6813,4.6812,4.6796,4.6792,4.6811,4.6814,4.6817,4.6891,4.6817,4.682,4.6821,4.6972,4.6975,4.6977,0,0,0,0,0,0,4.6775,4.6781,4.683,4.6805,4.681,4.6799,4.6816,4.6813,4.6822,4.6814,4.6812,4.6808,4.6809,4.6814,4.6856,4.6891,4.6821,4.6824,4.6969,4.6973,4.6976,4.7039,0,0,0,0,0,0,4.6773,4.6781,4.6805,4.6805,4.6811,4.6869,4.6818,4.6815,4.6827,4.6821,4.6824,4.6822,4.6808,4.6852,4.6859,4.6893,4.6826,4.6966,4.6971,4.6975,4.7033,4.7044,4.7053,0,0,0,0,0,4.6771,4.6821,4.6806,4.6813,4.684,4.6871,4.6875,4.6857,4.6829,4.6853,4.6848,4.6822,4.6886,4.6857,4.6864,4.69,4.6963,4.6969,4.6975,4.7029,4.7042,4.7053,0,0,0,0,0,0,4.6824,4.6821,4.6804,4.6856,4.6865,4.6863,4.6892,4.6871,4.6888,4.6882,4.6859,4.686,4.6908,4.6908,4.6876,4.6961,4.692,4.6927,4.6959,4.6971,4.6981,4.698,4.6828,0,0,0,0,0,4.6842,4.6867,4.6863,4.6909,4.6914,4.6903,4.6915,4.6902,4.6909,4.6912,4.6911,4.6919,4.6941,4.6956,4.6975,4.7033,4.7034,4.7061,4.7071,4.7079,4.7086,4.7118,4.713,4.6996,4.6996,4.6996,0,0,4.6879,4.688,4.6897,4.692,4.6925,4.6952,4.6906,4.6936,4.6956,4.6917,4.6957,4.6957,4.6964,4.7015,4.7037,4.7017,4.7123,4.7086,4.7093,4.7095,4.7125,4.7137,4.7149,4.7,4.6999,4.6998,0,0,4.696,4.6963,4.7003,4.7009,4.7018,4.701,4.702,4.7021,4.702,4.706,4.7032,4.7055,4.7093,4.71,4.7109,4.7195,4.7172,4.7202,4.7253,4.7285,4.7295,4.7305,4.7337,4.7348,4.7208,4.7209,4.7209,0,4.7005,4.7045,4.7026,4.7059,4.7071,4.7037,4.7077,4.7084,4.7098,4.7107,4.7083,4.7132,4.7134,4.7187,4.7208,4.7216,4.7227,4.7202,4.7295,4.7305,4.7313,4.7343,4.7355,4.7212,4.7212,4.7211,4.7211,0,4.7101,4.7129,4.716,4.7176,4.7191,4.7227,4.7214,4.7231,4.7216,4.7211,4.7253,4.7255,4.7276,4.7287,4.7272,4.7338,4.7325,4.7299,4.7258,4.733,4.7358,4.7369,4.7217,4.7216,4.7215,4.7214,0,0,4.7216,4.7222,4.7234,4.7241,4.7248,4.727,4.7305,4.7326,4.7341,4.7352,4.7382,4.7416,4.7392,4.7402,4.7388,4.7415,4.7485,4.7386,4.7386,4.7405,4.7559,4.758,4.7593,4.747,4.7472,4.7473,4.7559,0,4.7298,4.7359,4.7343,4.7404,4.7431,4.74,4.743,4.7439,4.7435,4.7457,4.7452,4.7477,4.7443,4.7449,4.7475,4.7471,4.7516,4.7464,4.7498,4.7499,4.7498,4.7608,4.7629,4.771,4.757,4.7572,4.7573,0,4.7401,4.7417,4.7481,4.7486,4.7496,4.7524,4.7543,4.7564,4.7572,4.7568,4.758,4.756,4.7596,4.7554,4.7603,4.7569,4.7581,4.7581,4.7584,4.7587,4.7541,4.7615,4.7735,4.7748,4.759,4.7588,4.7587,0,4.7481,4.7518,4.7562,4.7569,4.7574,4.7595,4.7599,4.7605,4.7619,4.7635,4.7643,4.7663,4.7674,4.769,4.7676,4.7647,4.7728,4.7685,4.7726,4.7726,4.7745,4.7744,4.787,4.7751,4.7751,4.7751,4.7751,0,4.7574,4.7615,4.7598,4.7625,4.767,4.7651,4.7696,4.7696,4.7702,4.7729,4.7702,4.7728,4.7708,4.7732,4.7722,4.7765,4.7769,4.7767,4.7764,4.777,4.7771,4.7779,4.7773,4.7754,4.7753,4.7753,4.7752,0,4.7671,4.7661,4.7707,4.7709,4.771,4.7744,4.7745,4.777,4.7765,4.7799,4.7806,4.7797,4.7824,4.7812,4.784,4.7833,4.7889,4.7877,4.7886,4.7884,4.7926,4.7923,4.8063,4.808,4.7949,4.795,4.7951,0,4.7732,4.7762,4.7768,4.7784,4.779,4.7816,4.783,4.7813,4.783,4.7842,4.7866,4.7891,4.791,4.7954,4.7951,4.7972,4.7962,4.8009,4.7965,4.7971,4.7964,4.7963,4.7967,4.8019,4.802,4.8022,4.8023,0,4.7841,4.7835,4.7857,4.7878,4.7896,4.7911,4.7924,4.7939,4.7923,4.7942,4.797,4.7985,4.8014,4.8039,4.8058,4.8061,4.804,4.8036,4.8047,4.8055,4.8059,4.8059,4.7912,4.8034,4.8032,4.8032,4.8031,4.8031,4.7923,4.795,4.7958,4.7984,4.7992,4.8005,4.8029,4.8027,4.805,4.8073,4.8061,4.8094,4.8102,4.8126,4.8133,4.8158,4.8139,4.8155,4.8159,4.8163,4.817,4.8054,4.8161,4.8161,4.816,4.816,4.816,0,4.8033,4.8037,4.8061,4.808,4.8101,4.8079,4.8092,4.8111,4.814,4.815,4.8169,4.8202,4.8226,4.8225,4.8247,4.8268,4.8259,4.8275,4.8274,4.8275,4.8184,4.8173,4.8282,4.8282,4.8282,4.8282,4.8282,4.8282,4.8092,4.8137,4.8132,4.818,4.8184,4.8216,4.8226,4.8238,4.8246,4.8284,4.8304,4.8303,4.8309,4.8332,4.8354,4.8352,4.8363,4.8383,4.8378,4.8293,4.8281,4.827,4.8259,4.8385,4.8385,4.8467,4.8468,4.8468]}]]